This is the latest recevied weather packets stored in our database for station/object AG7BI. If no packets are shown the sender has not sent any weather packets the latest 10 day(s).
| Time | Temp. | Humidity | Pressure | Rain* | Wind** | Luminosity | Snow |
|---|---|---|---|---|---|---|---|
| 1777058447 | 13.89° C | 56% | 1020.4 hPa | 0 mm | - | - | - |
| 1777057010 | 12.78° C | 70% | 1020.8 hPa | 0 mm | - | - | - |
| 1777056710 | 12.22° C | 75% | 1021 hPa | 0 mm | - | - | - |
| 1777056410 | 12.22° C | 75% | 1020.9 hPa | 0 mm | - | - | - |
| 1777056110 | 12.22° C | 75% | 1021 hPa | 0 mm | - | - | - |
| 1777055810 | 11.11° C | 74% | 1020.9 hPa | 0 mm | - | - | - |
| 1777055510 | 11.67° C | 77% | 1020.7 hPa | 0 mm | - | - | - |
| 1777055210 | 11.67° C | 79% | 1020.6 hPa | 0 mm | - | - | - |
| 1777054910 | 11.67° C | 81% | 1021 hPa | 0 mm | - | - | - |
| 1777054610 | 11.11° C | 78% | 1020.9 hPa | 0 mm | - | - | - |
| 1777054310 | 11.67° C | 80% | 1021.1 hPa | 0 mm | - | - | - |
| 1777054010 | 11.11° C | 80% | 1021.1 hPa | 0 mm | - | - | - |
| 1777053710 | 11.11° C | 82% | 1020.9 hPa | 0 mm | - | - | - |
| 1777053410 | 10.56° C | 81% | 1021.1 hPa | 0 mm | - | - | - |
| 1777053110 | 10.56° C | 83% | 1021.2 hPa | 0 mm | - | - | - |
| 1777052810 | 10.56° C | 83% | 1021.1 hPa | 0 mm | - | - | - |
| 1777052510 | 10.56° C | 83% | 1021.1 hPa | 0 mm | - | - | - |
| 1777052210 | 10° C | 84% | 1021.2 hPa | 0 mm | - | - | - |
| 1777051910 | 10° C | 85% | 1021.2 hPa | 0 mm | - | - | - |
| 1777051610 | 10° C | 84% | 1021.3 hPa | 0 mm | - | - | - |
| 1777051310 | 10° C | 84% | 1021.4 hPa | 0 mm | - | - | - |
| 1777051010 | 10° C | 86% | 1021.3 hPa | 0 mm | - | - | - |
| 1777050710 | 9.44° C | 85% | 1021.5 hPa | 0 mm | - | - | - |
| 1777050410 | 8.89° C | 87% | 1021.6 hPa | 0 mm | - | - | - |
| 1777050110 | 8.89° C | 88% | 1021.5 hPa | 0 mm | - | - | - |
* Rain latest hour (hover to see other rain measurements)
** Current wind speed in m/s (hover to see current wind gust speed)